TimeEDT,TemperatureF,Dew PointF,Humidity,Sea Level PressureIn,VisibilityMPH,Wind Direction,Wind SpeedMPH,Gust SpeedMPH,PrecipitationIn,Events,Conditions,WindDirDegrees,DateUTC
12:56 AM,60.1,54.0,80,30.13,-9999.0,ENE,3.5,-,N/A,,Unknown,70,2013-07-26 04:56:00
1:56 AM,59.0,53.1,81,30.12,-9999.0,NE,3.5,-,N/A,,Unknown,50,2013-07-26 05:56:00
2:56 AM,60.1,53.1,78,30.11,-9999.0,NE,4.6,-,N/A,,Unknown,50,2013-07-26 06:56:00
3:56 AM,59.0,55.0,87,30.11,-9999.0,NNW,3.5,-,N/A,,Unknown,330,2013-07-26 07:56:00
4:56 AM,60.1,54.0,80,30.10,-9999.0,Calm,Calm,-,N/A,,Unknown,0,2013-07-26 08:56:00
5:56 AM,60.1,53.1,78,30.10,-9999.0,Calm,Calm,-,N/A,,Unknown,0,2013-07-26 09:56:00
6:56 AM,61.0,54.0,78,30.10,-9999.0,Calm,Calm,-,N/A,,Unknown,0,2013-07-26 10:56:00
7:56 AM,61.0,55.0,81,30.10,-9999.0,Calm,Calm,-,N/A,,Unknown,0,2013-07-26 11:56:00
8:56 AM,62.1,55.9,80,30.09,-9999.0,Calm,Calm,-,N/A,,Unknown,0,2013-07-26 12:56:00
9:56 AM,63.0,57.0,81,30.09,-9999.0,Calm,Calm,-,N/A,,Unknown,0,2013-07-26 13:56:00
10:56 AM,61.0,57.9,90,30.09,-9999.0,Calm,Calm,-,0.01,,Unknown,0,2013-07-26 14:56:00
11:56 AM,62.1,60.1,93,30.07,-9999.0,NNW,3.5,-,0.05,,Unknown,340,2013-07-26 15:56:00
12:56 PM,62.1,60.1,93,30.05,-9999.0,North,5.8,-,0.04,,Unknown,350,2013-07-26 16:56:00
1:56 PM,63.0,60.1,90,30.01,-9999.0,NNW,9.2,-,0.01,,Unknown,330,2013-07-26 17:56:00
2:56 PM,62.1,60.1,93,30.00,-9999.0,North,10.4,-,N/A,,Unknown,350,2013-07-26 18:56:00
3:56 PM,61.0,59.0,93,29.99,-9999.0,North,11.5,18.4,N/A,,Unknown,360,2013-07-26 19:56:00
4:56 PM,61.0,59.0,93,29.99,-9999.0,North,15.0,23.0,0.01,,Unknown,10,2013-07-26 20:56:00
5:56 PM,61.0,59.0,93,29.99,-9999.0,North,11.5,19.6,N/A,,Unknown,360,2013-07-26 21:56:00
6:56 PM,60.1,57.9,93,29.98,-9999.0,North,12.7,20.7,N/A,,Unknown,360,2013-07-26 22:56:00
7:56 PM,60.1,57.9,93,29.96,-9999.0,North,12.7,20.7,N/A,,Unknown,360,2013-07-26 23:56:00
8:56 PM,60.1,57.0,90,29.96,-9999.0,North,12.7,17.3,0.01,,Unknown,360,2013-07-27 00:56:00
9:56 PM,59.0,57.0,93,29.96,-9999.0,North,11.5,20.7,N/A,,Unknown,360,2013-07-27 01:56:00
10:56 PM,59.0,57.0,93,29.95,-9999.0,North,9.2,17.3,N/A,,Unknown,10,2013-07-27 02:56:00
11:56 PM,59.0,57.0,93,29.94,-9999.0,NNW,13.8,-,N/A,,Unknown,340,2013-07-27 03:56:00